World > North America > United States > Oregon

Gladstone, Oregon Regional Weather

Lat: 45.39N, Lon: 122.59W
Wx Zone: ORZ006Web Search

Our weather pages are very print friendly and they make great conversation starters.

Feedback


°F Click to change Gladstone hourly weather to Imperial units.Click to change Gladstone hourly weather to Metric units. °C
Gladstone Weather Map
UTC Time: 5/14/2021, 17:39
Your Time:

Gladstone, OR Regional Weather

Expires:202105141700;;105995
ASUS46 KPQR 141610
RWROR 

OREGON REGIONAL WEATHER ROUNDUP
NATIONAL WEATHER SERVICE PORTLAND OR
900 AM PDT FRI MAY 14 2021

NOTE: "FAIR" INDICATES FEW OR NO CLOUDS BELOW 12,000 FEET WITH
NO SIGNIFICANT WEATHER AND/OR OBSTRUCTIONS TO VISIBILITY.


ORZ001>013-141700-
NORTHWEST OREGON

  
CITY           SKY/WX    TMP DP  RH WIND       PRES   REMARKS
ASTORIA        CLOUDY    50  48  93 N8        30.18S                  
TILLAMOOK      CLOUDY    50  46  87 W6        30.19R                  
NEWPORT        CLOUDY    48  46  93 N14       30.19S                  
FLORENCE       CLOUDY    52  47  83 NW10G16   30.16S                  
PORTLAND       MOSUNNY   59  48  67 NW5       30.12S                  
VANCOUVER WA   MOSUNNY   59  46  62 VRB3      30.11S                  
SCAPPOOSE      SUNNY     61  48  62 N13       30.11S                  
HILLSBORO      MOSUNNY   62  47  57 CALM      30.11S                  
AURORA         MOSUNNY   60  50  69 CALM      30.12F                  
MCMINNVILLE    MOSUNNY   58  49  72 W5        30.11F                  
SALEM          MOSUNNY   60  47  61 NW3       30.11S                  
CORVALLIS      MOSUNNY  N/A N/A N/A NW7       30.13S                  
EUGENE         PTSUNNY   58  49  72 CALM      30.13S                  
CRESWELL       PTSUNNY   55  52  88 CALM      30.12S                  
$$


SKY/WX - Weather  TMP - Temperature  DP - Dew Point  RH - Relative Humidity
WIND - Wind Direction/Speed PRES - Barometric Pressure VSB - Visibility
WCI - Wind Chill Index E13G22 Wind - East Wind 13 mph/Gusts of 22 mph